When you browse on this site, cookies collect data to enhance your experience and personalize the content and advertising you see.
Visit our Privacy Policy to learn more. By continuing to use the site, you agree to this use of cookies and data.
EN

Hourly Weather Dinagepoor

Today, 3 July, Friday

Time Temperature Precipitation Wind Pressure Humidity
00:00 +33°C° 0 mm 3 mps 748 mmHg 72%
01:00 +32°C° 0.5 mm 2 mps 747 mmHg 75%
02:00 +31°C° 0.5 mm 2 mps 747 mmHg 78%
03:00 +31°C° 0.5 mm 1 mps 746 mmHg 81%
04:00 +31°C° 0.6 mm 1 mps 747 mmHg 82%
05:00 +31°C° 0.6 mm 1 mps 747 mmHg 83%
06:00 +30°C° 0 mm 2 mps 748 mmHg 84%
07:00 +30°C° 4.1 mm 3 mps 748 mmHg 86%
08:00 +29°C° 4.1 mm 4 mps 748 mmHg 88%
09:00 +29°C° 4.1 mm 5 mps 748 mmHg 90%
10:00 +29°C° 2.9 mm 4 mps 748 mmHg 89%
11:00 +29°C° 2.9 mm 3 mps 748 mmHg 88%
12:00 +29°C° 2.9 mm 2 mps 748 mmHg 86%
13:00 +30°C° 0 mm 2 mps 747 mmHg 80%
14:00 +31°C° 0 mm 1 mps 747 mmHg 74%
15:00 +33°C° 0 mm 1 mps 746 mmHg 68%
16:00 +32°C° 0 mm 1 mps 746 mmHg 69%
17:00 +32°C° 0 mm 1 mps 746 mmHg 70%
18:00 +32°C° 0 mm 1 mps 746 mmHg 71%
19:00 +32°C° 0 mm 1 mps 746 mmHg 74%
20:00 +31°C° 0 mm 1 mps 747 mmHg 76%
21:00 +31°C° 0 mm 1 mps 747 mmHg 78%
22:00 +31°C° 0 mm 1 mps 747 mmHg 79%
23:00 +31°C° 0 mm 1 mps 747 mmHg 80%

Tomorrow, 4 July, Saturday

Time Temperature Precipitation Wind Pressure Humidity
00:00 +31°C° 0 mm 2 mps 747 mmHg 80%
01:00 +30°C° 0.8 mm 2 mps 747 mmHg 81%
02:00 +30°C° 0.8 mm 2 mps 746 mmHg 82%
03:00 +30°C° 0.8 mm 2 mps 746 mmHg 83%
04:00 +30°C° 1.9 mm 2 mps 746 mmHg 84%
05:00 +30°C° 1.9 mm 2 mps 746 mmHg 85%
06:00 +30°C° 1.9 mm 3 mps 747 mmHg 86%
07:00 +31°C° 1.8 mm 3 mps 747 mmHg 82%
08:00 +33°C° 1.8 mm 3 mps 747 mmHg 78%
09:00 +32°C° 1.8 mm 2 mps 747 mmHg 74%
10:00 +34°C° 3 mm 2 mps 747 mmHg 74%
11:00 +33°C° 3 mm 1 mps 747 mmHg 73%
12:00 +33°C° 3 mm 1 mps 747 mmHg 73%
13:00 +33°C° 1.4 mm 1 mps 746 mmHg 75%
14:00 +32°C° 1.4 mm 2 mps 746 mmHg 76%
15:00 +32°C° 1.4 mm 2 mps 745 mmHg 78%
16:00 +32°C° 0.1 mm 2 mps 745 mmHg 78%
17:00 +32°C° 0.1 mm 2 mps 745 mmHg 78%
18:00 +33°C° 0.1 mm 3 mps 745 mmHg 78%
19:00 +33°C° 2 mm 3 mps 746 mmHg 80%
20:00 +31°C° 2 mm 3 mps 746 mmHg 82%
21:00 +31°C° 2 mm 3 mps 747 mmHg 84%
22:00 +30°C° 2.6 mm 4 mps 747 mmHg 84%
23:00 +30°C° 2.6 mm 4 mps 747 mmHg 85%

Day after tomorrow, 5 July, Sunday

Time Temperature Precipitation Wind Pressure Humidity
00:00 +30°C° 2.6 mm 4 mps 747 mmHg 86%
01:00 +30°C° 1.4 mm 4 mps 746 mmHg 87%
02:00 +29°C° 1.4 mm 3 mps 746 mmHg 88%
03:00 +29°C° 1.4 mm 3 mps 746 mmHg 89%
04:00 +29°C° 0.4 mm 3 mps 746 mmHg 90%
05:00 +29°C° 0.4 mm 3 mps 746 mmHg 91%
06:00 +29°C° 0.4 mm 3 mps 746 mmHg 92%
07:00 +30°C° 0.1 mm 3 mps 746 mmHg 88%
08:00 +30°C° 0.1 mm 3 mps 747 mmHg 84%
09:00 +31°C° 0.1 mm 3 mps 747 mmHg 80%
10:00 +33°C° 0.4 mm 4 mps 747 mmHg 77%
11:00 +34°C° 0.4 mm 4 mps 746 mmHg 74%
12:00 +34°C° 0.4 mm 4 mps 746 mmHg 72%
13:00 +34°C° 0.5 mm 4 mps 746 mmHg 71%
14:00 +34°C° 0.5 mm 4 mps 745 mmHg 71%
15:00 +35°C° 0.5 mm 4 mps 745 mmHg 71%
16:00 +34°C° 0.2 mm 4 mps 744 mmHg 72%
17:00 +34°C° 0.2 mm 4 mps 744 mmHg 73%
18:00 +34°C° 0.2 mm 5 mps 744 mmHg 74%
19:00 +33°C° 0.1 mm 5 mps 745 mmHg 77%
20:00 +32°C° 0.1 mm 4 mps 745 mmHg 80%
21:00 +32°C° 0.1 mm 4 mps 746 mmHg 84%
22:00 +30°C° 0.9 mm 4 mps 746 mmHg 84%
23:00 +30°C° 0.9 mm 4 mps 746 mmHg 85%

6 July, Monday

Time Temperature Precipitation Wind Pressure Humidity
00:00 +30°C° 0.9 mm 3 mps 746 mmHg 86%
01:00 +29°C° 0 mm 3 mps 746 mmHg 87%
02:00 +29°C° 0 mm 3 mps 746 mmHg 89%
03:00 +29°C° 0 mm 3 mps 745 mmHg 90%
04:00 +29°C° 0 mm 3 mps 745 mmHg 90%
05:00 +29°C° 0 mm 3 mps 745 mmHg 91%
06:00 +29°C° 0 mm 4 mps 745 mmHg 91%
07:00 +30°C° 0 mm 4 mps 746 mmHg 87%
08:00 +30°C° 0 mm 5 mps 746 mmHg 83%
09:00 +32°C° 0 mm 6 mps 747 mmHg 80%
10:00 +33°C° 0.1 mm 6 mps 746 mmHg 76%
11:00 +34°C° 0.1 mm 6 mps 746 mmHg 72%
12:00 +35°C° 0.1 mm 6 mps 746 mmHg 68%
13:00 +35°C° 0.2 mm 6 mps 746 mmHg 67%
14:00 +35°C° 0.2 mm 6 mps 745 mmHg 66%
15:00 +36°C° 0.2 mm 6 mps 745 mmHg 64%
16:00 +36°C° 0 mm 5 mps 744 mmHg 66%
17:00 +35°C° 0 mm 5 mps 744 mmHg 67%
18:00 +35°C° 0 mm 5 mps 744 mmHg 68%
19:00 +34°C° 0.3 mm 5 mps 745 mmHg 72%
20:00 +33°C° 0.3 mm 5 mps 746 mmHg 76%
21:00 +33°C° 0.3 mm 5 mps 746 mmHg 80%
22:00 +32°C° 0.3 mm 4 mps 746 mmHg 81%
23:00 +32°C° 0.3 mm 4 mps 747 mmHg 83%

7 July, Tuesday

Time Temperature Precipitation Wind Pressure Humidity
00:00 +32°C° 0.3 mm 4 mps 747 mmHg 84%
01:00 +32°C° 3.7 mm 4 mps 746 mmHg 84%
02:00 +32°C° 3.7 mm 4 mps 746 mmHg 83%
03:00 +32°C° 3.7 mm 5 mps 746 mmHg 83%
04:00 +30°C° 3.4 mm 5 mps 746 mmHg 85%
05:00 +29°C° 3.4 mm 4 mps 746 mmHg 88%
06:00 +29°C° 3.4 mm 4 mps 747 mmHg 90%
07:00 +29°C° 1.2 mm 5 mps 747 mmHg 90%
08:00 +29°C° 1.2 mm 5 mps 748 mmHg 89%
09:00 +30°C° 1.2 mm 5 mps 749 mmHg 88%
10:00 +32°C° 0.2 mm 5 mps 748 mmHg 83%
11:00 +33°C° 0.2 mm 5 mps 748 mmHg 78%
12:00 +34°C° 0.2 mm 5 mps 748 mmHg 72%
13:00 +35°C° 0.1 mm 5 mps 747 mmHg 70%
14:00 +35°C° 0.1 mm 5 mps 747 mmHg 68%
15:00 +36°C° 0.1 mm 5 mps 746 mmHg 65%
16:00 +36°C° 0.4 mm 5 mps 746 mmHg 67%
17:00 +35°C° 0.4 mm 4 mps 746 mmHg 70%
18:00 +35°C° 0.4 mm 4 mps 746 mmHg 72%
19:00 +34°C° 0.1 mm 4 mps 746 mmHg 75%
20:00 +33°C° 0.1 mm 3 mps 747 mmHg 79%
21:00 +33°C° 0.1 mm 3 mps 748 mmHg 82%
22:00 +32°C° 1.1 mm 4 mps 748 mmHg 82%
23:00 +32°C° 1 mm 4 mps 748 mmHg 82%

8 July, Wednesday

Time Temperature Precipitation Wind Pressure Humidity
00:00 +32°C° 1 mm 4 mps 748 mmHg 82%
01:00 +30°C° 0.6 mm 4 mps 747 mmHg 84%
02:00 +30°C° 0.6 mm 3 mps 747 mmHg 86%
03:00 +30°C° 0.6 mm 3 mps 747 mmHg 87%
04:00 +30°C° 0.2 mm 3 mps 747 mmHg 88%
05:00 +30°C° 0.2 mm 2 mps 747 mmHg 89%
06:00 +30°C° 0.2 mm 2 mps 747 mmHg 90%
07:00 +31°C° 1.6 mm 2 mps 747 mmHg 85%
08:00 +31°C° 1.6 mm 3 mps 748 mmHg 81%
09:00 +33°C° 1.6 mm 3 mps 748 mmHg 77%
10:00 +34°C° 0.2 mm 3 mps 748 mmHg 73%
11:00 +35°C° 0.2 mm 2 mps 748 mmHg 69%
12:00 +36°C° 0.2 mm 2 mps 747 mmHg 65%
13:00 +36°C° 0.1 mm 2 mps 747 mmHg 64%
14:00 +36°C° 0.1 mm 2 mps 746 mmHg 63%
15:00 +37°C° 0.1 mm 2 mps 746 mmHg 61%
16:00 +36°C° 0.2 mm 2 mps 746 mmHg 64%
17:00 +36°C° 0.2 mm 2 mps 745 mmHg 66%
18:00 +36°C° 0.2 mm 3 mps 745 mmHg 68%
19:00 +35°C° 0.2 mm 3 mps 746 mmHg 72%
20:00 +34°C° 0.2 mm 3 mps 746 mmHg 75%
21:00 +33°C° 0.2 mm 3 mps 746 mmHg 78%
22:00 +33°C° 0.5 mm 3 mps 746 mmHg 79%
23:00 +33°C° 0.5 mm 4 mps 746 mmHg 79%
Show more